User: anonymous   Login
Location: Goheenville
(40.9070°N, 79.3720°W)
Time: 05:35:36
(UTC-04:00)
Language:

Cosmos 1727 Rocket - Orbit

View from above orbital plane
View from above orbital plane
View from above satellite
View from above satellite

Ground track
Ground track

The orbit data is extracted from the following two-line orbital elements,

1 16511U 86008B   16149.53558338 -.00000048  00000-0 -65177-4 0  9991
2 16511  82.9427 145.1814 0022760 277.9637 198.1588 13.75806861523386
Epoch (UTC): 28 May 2016 12:51:14
Eccentricity: 0.0022760
inclination: 82.9427°
perigee height: 962 km
apogee height: 995 km
right ascension of ascending node: 145.1814°
argument of perigee: 277.9637°
revolutions per day: 13.75806861
mean anomaly at epoch: 198.1588°
orbit number at epoch: 52338

The dashed part of the orbit path shows where the satellite is in the earth's shadow,  

DLR